Погода в Олёкме

Россия / Амурская область     57°01′26″N   120°43′51″E
темп.,
°C
ветер,
м/с
пор.,
м/с
влажн.,
%
обл.,
%
осадки,
мм/ч
давл.,
гПа
погр.,
м
22 апреля, чт
чт2200:00−6ссз2293100 0.3 102118
03:00−8сз3285100 0.4 102340
06:00−12сз2285100 0.0 102722
09:00−6сз26546 0.0 10281268
12:00−4ссз5750100 0.0 10292095
15:00−3сз6952100 0.1 10292360
18:00−3ссз510606 0.1 10311602
21:00−12сз32845 0.1 103618
23 апреля, пт
пт2300:00−14зсз229229 0.0 104010
03:00−16з119496 0.0 10429
06:00−18зсз119218 0.0 10449
09:00−9ю22703 0.0 1041214
12:00−4ю22674 0.0 1038579
15:00−2ююз23606 0.0 1034774
18:000ююз235573 0.0 1033420
21:00−9зсз22835 0.0 103512
24 апреля, сб
сб2400:00−12з11885 0.0 103620
03:00−12з119019 0.1 103720
06:00−12зюз129124 0.1 103627
09:00−2з296630 0.2 1033882
12:00+1ссз5116588 0.0 10321556
15:00+2ссз6115871 0.1 10311797
18:00+2ссз376664 0.1 10311050
21:00−4сз22898 0.1 103312
25 апреля, вс
вс2500:00−6зсз21895 0.0 103312
03:00−8зюз118933 0.0 103212
06:00−9зсз1190100 0.0 103013
09:00−5ю1176100 0.0 1027206
12:00−1ююв1169100 0.0 1021399
15:00+2ю1164100 0.0 1017485
18:00+1з1174100 0.0 1014252
21:00−1сз2187100 0.0 101312
26 апреля, пн
пн2600:00−2сз0091100 0.0 101110
03:00−2ссз0092100 0.0 100910
06:00−2ссз1191100 0.0 100711
09:00+1вюв0075100 0.0 1006233
12:00+3вюв1168100 0.0 1004760
15:00+3всв1176100 0.1 1003613
18:00+3св1276100 0.3 1003332
21:000сз2186100 0.4 100413